[[{"header":{"parameterUnit":"m.s-1","parameterCategory":1,"la1":30.2991,"la2":30.254,"lo1":-89.0895,"lo2":-89.0444,"dy":0.0017,"dx":0.0017,"nx":28,"ny":28,"refTime":"2024-04-21T03:00:00:Z","depth":0,"parameterNumber":2,"parameterNumberName":"U-component_of_WINDS"},"data":[0,0,0,0,0,0,0,0,0,0,0,0,0,0,0,0,0,0,0,0,0,0,0,0,0,0,0,0,0,0,0,0,0,0,0,0,0,0,0,0,0,0,0,0,0,0,0,0,0,0,0,0,0,0,0,0,0,0,-0.1384,-0.1383,0,-0.1268,-0.1266,-0.1265,-0.1199,-0.1199,-0.1198,-0.1198,-0.1079,-0.1076,-0.1073,0,0,0,0,0,0,0,0,0,0,0,0,0,-0.155,-0.1548,-0.1384,-0.1383,-0.1381,-0.1268,-0.1266,-0.1265,-0.1199,-0.1199,-0.1198,-0.1198,-0.108,-0.1076,-0.1073,0,0,0,0,0,0,0,0,0,0,0,0,0,-0.1461,-0.1547,-0.1384,-0.1335,-0.1329,-0.1268,-0.1266,-0.1264,-0.1199,-0.1199,-0.1198,-0.1198,-0.1081,-0.1077,-0.1072,-0.1052,0,0,-0.1059,-0.1057,0,0,0,0,0,0,0,0,-0.1466,-0.1455,-0.1343,-0.1338,-0.1332,-0.1247,-0.1281,-0.1193,-0.1199,-0.1248,-0.1198,-0.1198,-0.1135,-0.1126,-0.1105,-0.1046,-0.1041,-0.1058,-0.1056,-0.1054,-0.1052,0,0,0,0,0,0,0,-0.1472,-0.1459,-0.1338,-0.1342,-0.1335,-0.1319,-0.1305,-0.1264,-0.1195,-0.1244,-0.1239,-0.1226,-0.1132,-0.111,-0.1102,-0.1039,-0.1058,-0.1054,-0.1052,-0.105,-0.0958,-0.0958,0,0,0,0,0,0,-0.1486,-0.1465,-0.1342,-0.1334,-0.1399,-0.1316,-0.1301,-0.1275,-0.1195,-0.1183,-0.1227,-0.1224,-0.1117,-0.1107,-0.1097,-0.1068,-0.1054,-0.105,-0.1047,-0.0958,-0.0958,-0.0958,0,0,0,0,0,0,-0.149,-0.1476,-0.1346,-0.1398,-0.138,-0.1313,-0.1284,-0.1273,-0.125,-0.1182,-0.117,-0.1216,-0.1117,-0.1104,-0.1064,-0.1063,-0.1048,-0.1043,-0.0957,-0.0958,-0.0958,-0.101,0,0,0,0,0,0,-0.1495,-0.1478,-0.1469,-0.1398,-0.1378,-0.1315,-0.1284,-0.1271,-0.1243,-0.1238,-0.1169,-0.1158,-0.1115,-0.1071,-0.1059,-0.1057,-0.104,-0.0957,-0.0957,-0.0958,-0.1008,-0.1012,-0.1015,0,0,0,0,0,-0.1501,-0.1488,-0.1469,-0.1454,-0.1366,-0.1315,-0.1303,-0.1255,-0.1243,-0.1234,-0.119,-0.116,-0.1065,-0.1067,-0.1054,-0.105,-0.0957,-0.0957,-0.0958,-0.1006,-0.1011,-0.1015,0,0,0,0,0,0,-0.156,-0.1478,-0.1455,-0.1419,-0.1374,-0.1304,-0.129,-0.1261,-0.1219,-0.1216,-0.1158,-0.1143,-0.1109,-0.1075,-0.1079,-0.1026,-0.1008,-0.1006,-0.1049,-0.1053,-0.1057,-0.1066,-0.1036,0,0,0,0,0,-0.1569,-0.1534,-0.1464,-0.1439,-0.1417,-0.1358,-0.1334,-0.1301,-0.1252,-0.1233,-0.1186,-0.114,-0.11,-0.1075,-0.1034,-0.1003,-0.0987,-0.0994,-0.0998,-0.1001,-0.1,-0.0981,-0.0984,-0.096,-0.096,-0.096,0,0,-0.1586,-0.1537,-0.1519,-0.1449,-0.1411,-0.1376,-0.1342,-0.1307,-0.1281,-0.1227,-0.1187,-0.1151,-0.1096,-0.1061,-0.1043,-0.1032,-0.1003,-0.1002,-0.1005,-0.1002,-0.0982,-0.0985,-0.0987,-0.096,-0.096,-0.096,0,0,-0.1601,-0.156,-0.1534,-0.1497,-0.1439,-0.1399,-0.1394,-0.1327,-0.1302,-0.126,-0.1219,-0.1187,-0.1119,-0.1082,-0.1054,-0.1056,-0.1026,-0.1044,-0.1064,-0.1046,-0.1048,-0.105,-0.1051,-0.1052,-0.1043,-0.1043,-0.1043,0,-0.163,-0.1576,-0.1525,-0.1492,-0.1463,-0.1413,-0.1387,-0.1353,-0.1285,-0.1267,-0.1255,-0.1169,-0.1129,-0.1084,-0.1085,-0.1064,-0.1055,-0.1051,-0.1052,-0.1053,-0.1054,-0.1054,-0.1054,-0.1046,-0.1045,-0.1045,-0.1045,0,-0.1615,-0.1579,-0.1565,-0.1501,-0.147,-0.1441,-0.1386,-0.1362,-0.1331,-0.1294,-0.1252,-0.1202,-0.115,-0.1137,-0.1107,-0.1089,-0.1084,-0.1063,-0.1043,-0.1059,-0.1059,-0.1058,-0.1049,-0.1048,-0.1048,-0.1047,0,0,-0.1663,-0.1571,-0.1567,-0.1538,-0.1471,-0.1441,-0.1411,-0.136,-0.1341,-0.1296,-0.1268,-0.1213,-0.1193,-0.1162,-0.1127,-0.1112,-0.1117,-0.1093,-0.1091,-0.11,-0.1094,-0.111,-0.1111,-0.1097,-0.1097,-0.1097,-0.1099,0,-0.1668,-0.161,-0.1563,-0.1523,-0.1489,-0.1441,-0.1414,-0.137,-0.1334,-0.13,-0.1261,-0.1222,-0.1199,-0.118,-0.1163,-0.112,-0.1115,-0.1119,-0.1072,-0.1071,-0.1087,-0.1111,-0.1127,-0.1132,-0.1098,-0.1098,-0.1098,0,-0.1666,-0.1623,-0.1579,-0.1516,-0.15,-0.1477,-0.1427,-0.1395,-0.1345,-0.132,-0.1285,-0.125,-0.1215,-0.1199,-0.1151,-0.1155,-0.1133,-0.1109,-0.1108,-0.1102,-0.1086,-0.1106,-0.1132,-0.1133,-0.1097,-0.1097,-0.1097,0,-0.1706,-0.1637,-0.1602,-0.1578,-0.1504,-0.1488,-0.1457,-0.1406,-0.1379,-0.1336,-0.1318,-0.1272,-0.1246,-0.1211,-0.1164,-0.1157,-0.1121,-0.1101,-0.11,-0.1101,-0.1094,-0.1096,-0.1118,-0.108,-0.108,-0.108,-0.108,0,-0.1717,-0.1692,-0.1619,-0.1598,-0.1569,-0.1516,-0.1488,-0.1453,-0.1408,-0.1379,-0.1335,-0.1309,-0.1248,-0.1214,-0.1177,-0.1144,-0.1132,-0.1111,-0.1102,-0.1115,-0.1118,-0.11,-0.1099,-0.108,-0.108,-0.108,-0.108,0,-0.1757,-0.1707,-0.1666,-0.1598,-0.1581,-0.1563,-0.1505,-0.1483,-0.1444,-0.1408,-0.1397,-0.1337,-0.1295,-0.1245,-0.1187,-0.1162,-0.1132,-0.1118,-0.1149,-0.1144,-0.1145,-0.1146,-0.1157,-0.1156,-0.1119,-0.112,-0.112,0,-0.1767,-0.1747,-0.1678,-0.1655,-0.1624,-0.1589,-0.1561,-0.1508,-0.1481,-0.1423,-0.1408,-0.1363,-0.1324,-0.126,-0.1211,-0.1167,-0.1151,-0.1158,-0.1144,-0.1159,-0.1152,-0.1154,-0.1152,-0.1162,-0.1163,-0.1163,-0.1164,0,-0.1791,-0.1767,-0.1729,-0.1682,-0.1651,-0.1611,-0.157,-0.1554,-0.1493,-0.1465,-0.1422,-0.1392,-0.1333,-0.129,-0.1239,-0.1207,-0.1175,-0.1168,-0.1166,-0.118,-0.1199,-0.1189,-0.116,-0.1168,-0.1168,-0.1168,-0.1167,-0.1167,-0.1817,-0.1797,-0.1745,-0.1704,-0.1667,-0.163,-0.1606,-0.1564,-0.1528,-0.1476,-0.1447,-0.1405,-0.1355,-0.1284,-0.1253,-0.122,-0.1208,-0.1205,-0.1204,-0.1204,-0.1208,-0.1204,-0.121,-0.121,-0.121,-0.121,-0.121,0,-0.1839,-0.1803,-0.1766,-0.1709,-0.1677,-0.165,-0.1604,-0.1579,-0.1542,-0.1499,-0.1462,-0.1413,-0.137,-0.1319,-0.1273,-0.1256,-0.1241,-0.1246,-0.1247,-0.124,-0.122,-0.1228,-0.1259,-0.1259,-0.1259,-0.1259,-0.1259,-0.1259,-0.1847,-0.1811,-0.1782,-0.1728,-0.1693,-0.1651,-0.1627,-0.1592,-0.1557,-0.1505,-0.1469,-0.1436,-0.1389,-0.1339,-0.1299,-0.1285,-0.1271,-0.1281,-0.1262,-0.1245,-0.1241,-0.1237,-0.1243,-0.1278,-0.1278,-0.1284,-0.1284,-0.1284]},{"header":{"parameterUnit":"m.s-1","parameterCategory":1,"la1":30.2991,"la2":30.254,"lo1":-89.0895,"lo2":-89.0444,"dy":0.0017,"dx":0.0017,"nx":28,"ny":28,"refTime":"2024-04-21T03:00:00:Z","depth":0,"parameterNumber":3,"parameterNumberName":"V-component_of_WINDS"},"data":[0,0,0,0,0,0,0,0,0,0,0,0,0,0,0,0,0,0,0,0,0,0,0,0,0,0,0,0,0,0,0,0,0,0,0,0,0,0,0,0,0,0,0,0,0,0,0,0,0,0,0,0,0,0,0,0,0,0,4.5764,4.5764,0,4.5765,4.5765,4.5765,4.5777,4.5777,4.5777,4.5778,4.5775,4.5775,4.5775,0,0,0,0,0,0,0,0,0,0,0,0,0,4.5768,4.5768,4.5764,4.5764,4.5764,4.5765,4.5765,4.5765,4.5777,4.5777,4.5777,4.5778,4.5775,4.5775,4.5775,0,0,0,0,0,0,0,0,0,0,0,0,0,4.5768,4.5768,4.5764,4.577,4.577,4.5765,4.5765,4.5765,4.5777,4.5777,4.5777,4.5778,4.5775,4.5775,4.5775,4.5763,0,0,4.5773,4.5773,0,0,0,0,0,0,0,0,4.5768,4.5768,4.5769,4.5769,4.577,4.5771,4.5766,4.5764,4.5776,4.5774,4.5778,4.5778,4.5773,4.5773,4.5772,4.5763,4.5763,4.5773,4.5773,4.5772,4.5772,0,0,0,0,0,0,0,4.5768,4.5767,4.5764,4.5769,4.5769,4.5772,4.5772,4.5766,4.5771,4.5774,4.5775,4.5775,4.5774,4.5773,4.5772,4.5763,4.5773,4.5773,4.5772,4.5772,4.5747,4.5747,0,0,0,0,0,0,4.5767,4.5767,4.5764,4.5764,4.577,4.5771,4.5772,4.577,4.5771,4.5772,4.5775,4.5776,4.5773,4.5773,4.5772,4.5761,4.5773,4.5772,4.5772,4.5748,4.5747,4.5747,0,0,0,0,0,0,4.5767,4.5767,4.5764,4.5766,4.5766,4.5771,4.5769,4.577,4.5769,4.5772,4.5773,4.5773,4.5774,4.5773,4.5766,4.5761,4.5772,4.5771,4.5748,4.5748,4.5747,4.5737,0,0,0,0,0,0,4.5768,4.5767,4.5763,4.5766,4.5766,4.5758,4.5769,4.577,4.5769,4.577,4.577,4.5771,4.5774,4.5767,4.5766,4.576,4.5771,4.5749,4.5748,4.5747,4.5737,4.5736,4.5734,0,0,0,0,0,4.5768,4.5758,4.5762,4.5762,4.5761,4.5758,4.5758,4.5763,4.5768,4.5764,4.5767,4.5771,4.5762,4.5766,4.5765,4.5759,4.5749,4.5748,4.5747,4.5738,4.5736,4.5734,0,0,0,0,0,0,4.5751,4.5758,4.5763,4.5754,4.5756,4.576,4.5754,4.576,4.5758,4.5759,4.5765,4.5765,4.5758,4.5758,4.5762,4.575,4.5756,4.5755,4.575,4.5748,4.5746,4.5746,4.5771,0,0,0,0,0,4.5747,4.5745,4.5751,4.5743,4.5743,4.5749,4.5748,4.5752,4.5753,4.5753,4.5755,4.5755,4.5752,4.575,4.5748,4.5738,4.5739,4.5734,4.5732,4.5731,4.573,4.5727,4.5726,4.5744,4.5744,4.5744,0,0,4.5737,4.5741,4.5739,4.574,4.5741,4.5739,4.5749,4.5745,4.5744,4.5752,4.5747,4.5748,4.5749,4.5741,4.5738,4.5741,4.5725,4.573,4.5729,4.5728,4.5726,4.5725,4.5723,4.5744,4.5744,4.5744,0,0,4.5719,4.5721,4.5716,4.5718,4.5721,4.5726,4.5725,4.5729,4.5731,4.5726,4.5733,4.5731,4.5726,4.5727,4.5727,4.5713,4.5718,4.5712,4.5704,4.5701,4.57,4.5699,4.5695,4.5694,4.5711,4.5711,4.5711,0,4.5706,4.5703,4.5712,4.5709,4.571,4.572,4.5715,4.5716,4.5718,4.5718,4.5722,4.5719,4.572,4.5714,4.5711,4.571,4.571,4.5712,4.57,4.5699,4.5697,4.5694,4.5693,4.5711,4.5711,4.5711,4.5711,0,4.5688,4.5687,4.5682,4.5687,4.5687,4.5683,4.5691,4.569,4.5695,4.5699,4.5696,4.5698,4.5697,4.5696,4.57,4.5692,4.5694,4.5699,4.5705,4.5695,4.5692,4.5691,4.571,4.571,4.571,4.571,0,0,4.5657,4.5669,4.5667,4.5671,4.5677,4.5675,4.5673,4.5675,4.5675,4.5676,4.5674,4.5672,4.5678,4.5678,4.5682,4.568,4.5672,4.5685,4.5685,4.5684,4.5665,4.5661,4.566,4.5675,4.5675,4.5675,4.5665,0,4.564,4.5637,4.5647,4.5641,4.5641,4.5653,4.5651,4.5654,4.5659,4.5659,4.5664,4.5663,4.567,4.567,4.5669,4.5673,4.5668,4.5674,4.5674,4.5674,4.5673,4.5658,4.5654,4.5644,4.5664,4.5664,4.5664,0,4.562,4.5624,4.5619,4.5629,4.5629,4.5627,4.5631,4.5631,4.5636,4.564,4.5642,4.5648,4.5647,4.5654,4.5653,4.5657,4.5658,4.566,4.566,4.566,4.5668,4.5658,4.5641,4.564,4.5662,4.5662,4.5662,0,4.5599,4.5603,4.5601,4.5603,4.5614,4.5613,4.5617,4.5623,4.5625,4.5628,4.563,4.5632,4.5633,4.5635,4.5643,4.5647,4.5641,4.5648,4.5644,4.5644,4.5642,4.5642,4.5625,4.5642,4.5642,4.5642,4.5642,0,4.5579,4.5576,4.5593,4.5591,4.5589,4.56,4.5597,4.5603,4.5609,4.5609,4.5619,4.5619,4.5629,4.563,4.5636,4.5635,4.5635,4.5638,4.564,4.5637,4.5637,4.5638,4.5639,4.5642,4.5642,4.5642,4.5642,0,4.5555,4.5566,4.5565,4.5577,4.558,4.5578,4.5588,4.5588,4.5594,4.5595,4.5596,4.5606,4.5608,4.5617,4.562,4.5624,4.5622,4.5625,4.5621,4.5622,4.5618,4.5618,4.5601,4.56,4.5617,4.5617,4.5617,0,4.5542,4.554,4.5553,4.5555,4.556,4.5563,4.5566,4.5577,4.5579,4.5587,4.5586,4.559,4.5594,4.5598,4.5605,4.5609,4.5612,4.5606,4.5612,4.5611,4.5613,4.5613,4.5614,4.5604,4.5604,4.5604,4.5603,0,4.5518,4.5524,4.5529,4.5536,4.5539,4.5545,4.5551,4.5552,4.5565,4.5567,4.5571,4.5574,4.558,4.5584,4.559,4.5594,4.5601,4.5602,4.5601,4.5599,4.5597,4.5599,4.5617,4.5602,4.5602,4.5602,4.5602,4.5602,4.5499,4.55,4.551,4.5515,4.5522,4.5528,4.553,4.5538,4.5542,4.5549,4.5555,4.5559,4.5567,4.5576,4.558,4.5583,4.5587,4.5586,4.5585,4.5585,4.5585,4.5597,4.5584,4.5584,4.5584,4.5584,4.5584,0,4.5477,4.5485,4.549,4.55,4.5504,4.5513,4.5521,4.5524,4.5528,4.5536,4.554,4.5546,4.5551,4.556,4.5566,4.5567,4.5571,4.5568,4.5568,4.557,4.558,4.5581,4.5566,4.5566,4.5566,4.5566,4.5566,4.5566,4.5466,4.5468,4.5476,4.5482,4.549,4.5495,4.5499,4.5506,4.5512,4.5519,4.5524,4.5531,4.554,4.5547,4.5552,4.5555,4.5557,4.5554,4.5557,4.5567,4.5569,4.557,4.5571,4.5554,4.5554,4.5546,4.5546,4.5546]}]]